TimeEST,TemperatureF,Dew PointF,Humidity,Sea Level PressureIn,VisibilityMPH,Wind Direction,Wind SpeedMPH,Gust SpeedMPH,PrecipitationIn,Events,Conditions,WindDirDegrees,DateUTC
12:18 AM,51.8,46.4,82,30.19,10.0,Calm,Calm,-,N/A,,Overcast,0,2013-11-17 05:18:00
12:38 AM,51.8,48.2,88,30.19,10.0,Calm,Calm,-,N/A,,Overcast,0,2013-11-17 05:38:00
12:58 AM,51.8,48.2,88,30.19,10.0,Calm,Calm,-,N/A,,Overcast,0,2013-11-17 05:58:00
1:18 AM,50.0,46.4,87,30.18,10.0,NE,3.5,-,N/A,,Overcast,50,2013-11-17 06:18:00
1:38 AM,50.0,46.4,87,30.17,10.0,Calm,Calm,-,N/A,,Overcast,0,2013-11-17 06:38:00
1:58 AM,50.0,46.4,87,30.17,10.0,Calm,Calm,-,N/A,,Overcast,0,2013-11-17 06:58:00
2:18 AM,50.0,46.4,87,30.16,10.0,Calm,Calm,-,N/A,,Overcast,0,2013-11-17 07:18:00
2:38 AM,50.0,46.4,87,30.16,10.0,NNE,3.5,-,N/A,,Scattered Clouds,20,2013-11-17 07:38:00
2:58 AM,50.0,46.4,87,30.15,7.0,Calm,Calm,-,N/A,,Clear,0,2013-11-17 07:58:00
3:18 AM,50.0,46.4,87,30.15,7.0,Calm,Calm,-,N/A,,Clear,0,2013-11-17 08:18:00
3:38 AM,48.2,46.4,93,30.14,7.0,Calm,Calm,-,N/A,,Scattered Clouds,0,2013-11-17 08:38:00
3:58 AM,48.2,46.4,93,30.14,7.0,Calm,Calm,-,N/A,,Scattered Clouds,0,2013-11-17 08:58:00
4:18 AM,48.2,46.4,93,30.13,7.0,Calm,Calm,-,N/A,,Scattered Clouds,0,2013-11-17 09:18:00
4:38 AM,46.4,46.4,100,30.12,7.0,Calm,Calm,-,N/A,,Scattered Clouds,0,2013-11-17 09:38:00
4:58 AM,46.4,46.4,100,30.12,7.0,NW,3.5,-,N/A,,Scattered Clouds,320,2013-11-17 09:58:00
5:18 AM,46.4,46.4,100,30.11,5.0,North,3.5,-,N/A,,Scattered Clouds,10,2013-11-17 10:18:00
5:38 AM,46.4,46.4,100,30.11,7.0,Calm,Calm,-,N/A,,Scattered Clouds,0,2013-11-17 10:38:00
5:58 AM,46.4,46.4,100,30.11,7.0,Calm,Calm,-,N/A,,Scattered Clouds,0,2013-11-17 10:58:00
6:18 AM,46.4,46.4,100,30.12,7.0,Calm,Calm,-,N/A,,Scattered Clouds,0,2013-11-17 11:18:00
6:38 AM,46.4,46.4,100,30.12,7.0,NNE,3.5,-,N/A,,Overcast,30,2013-11-17 11:38:00
6:58 AM,48.2,46.4,93,30.11,5.0,ENE,3.5,-,N/A,,Mostly Cloudy,60,2013-11-17 11:58:00
7:18 AM,48.2,46.4,93,30.12,5.0,NNW,3.5,-,N/A,,Mostly Cloudy,330,2013-11-17 12:18:00
7:38 AM,48.2,46.4,93,30.12,5.0,Calm,Calm,-,N/A,,Mostly Cloudy,0,2013-11-17 12:38:00
7:58 AM,48.2,46.4,93,30.12,4.0,Calm,Calm,-,N/A,,Scattered Clouds,0,2013-11-17 12:58:00
8:18 AM,50.0,48.2,94,30.11,5.0,Calm,Calm,-,N/A,,Clear,0,2013-11-17 13:18:00
8:38 AM,51.8,48.2,88,30.12,7.0,Calm,Calm,-,N/A,,Scattered Clouds,0,2013-11-17 13:38:00
8:59 AM,51.8,48.2,88,30.11,7.0,Calm,Calm,-,N/A,,Scattered Clouds,0,2013-11-17 13:59:00
9:19 AM,51.8,48.2,88,30.12,7.0,Calm,Calm,-,N/A,,Unknown,0,2013-11-17 14:19:00
9:39 AM,53.6,50.0,88,30.12,7.0,Calm,Calm,-,N/A,,Scattered Clouds,0,2013-11-17 14:39:00
9:59 AM,53.6,50.0,88,30.11,10.0,Calm,Calm,-,N/A,,Clear,0,2013-11-17 14:59:00
10:19 AM,55.4,50.0,82,30.10,10.0,Calm,Calm,-,N/A,,Scattered Clouds,0,2013-11-17 15:19:00
10:39 AM,59.0,50.0,72,30.09,10.0,Calm,Calm,-,N/A,,Scattered Clouds,0,2013-11-17 15:39:00
10:59 AM,57.2,50.0,77,30.09,10.0,Calm,Calm,-,N/A,,Scattered Clouds,0,2013-11-17 15:59:00
11:19 AM,59.0,51.8,77,30.08,10.0,Calm,Calm,-,N/A,,Scattered Clouds,0,2013-11-17 16:19:00
11:39 AM,59.0,51.8,77,30.07,10.0,Calm,Calm,-,N/A,,Scattered Clouds,0,2013-11-17 16:39:00
11:59 AM,59.0,51.8,77,30.06,10.0,Calm,Calm,-,N/A,,Scattered Clouds,0,2013-11-17 16:59:00
12:19 PM,59.0,51.8,77,30.05,10.0,Calm,Calm,-,N/A,,Mostly Cloudy,0,2013-11-17 17:19:00
12:39 PM,59.0,51.8,77,30.05,10.0,Calm,Calm,-,N/A,,Mostly Cloudy,0,2013-11-17 17:39:00
12:59 PM,60.8,51.8,72,30.03,10.0,Calm,Calm,-,N/A,,Scattered Clouds,0,2013-11-17 17:59:00
1:19 PM,60.8,51.8,72,30.02,10.0,Calm,Calm,-,N/A,,Scattered Clouds,0,2013-11-17 18:19:00
1:39 PM,60.8,51.8,72,30.01,10.0,Calm,Calm,-,N/A,,Scattered Clouds,0,2013-11-17 18:39:00
1:59 PM,60.8,51.8,72,30.00,10.0,Calm,Calm,-,N/A,,Clear,0,2013-11-17 18:59:00
2:19 PM,60.8,51.8,72,29.98,10.0,SW,3.5,-,N/A,,Clear,220,2013-11-17 19:19:00
2:39 PM,60.8,51.8,72,29.97,10.0,SW,3.5,-,N/A,,Clear,230,2013-11-17 19:39:00
2:59 PM,60.8,51.8,72,29.96,10.0,Calm,Calm,-,N/A,,Clear,0,2013-11-17 19:59:00
3:19 PM,60.8,51.8,72,29.95,10.0,Calm,Calm,-,N/A,,Clear,0,2013-11-17 20:19:00
3:39 PM,60.8,51.8,72,29.94,10.0,Calm,Calm,-,N/A,,Clear,0,2013-11-17 20:39:00
3:59 PM,60.8,51.8,72,29.94,10.0,Calm,Calm,-,N/A,,Clear,0,2013-11-17 20:59:00
4:19 PM,60.8,51.8,72,29.92,10.0,Calm,Calm,-,N/A,,Clear,0,2013-11-17 21:19:00
4:39 PM,60.8,51.8,72,29.91,10.0,Calm,Calm,-,N/A,,Scattered Clouds,0,2013-11-17 21:39:00
4:59 PM,60.8,51.8,72,29.91,10.0,Calm,Calm,-,N/A,,Scattered Clouds,0,2013-11-17 21:59:00
5:19 PM,59.0,51.8,77,29.89,10.0,Calm,Calm,-,N/A,,Scattered Clouds,0,2013-11-17 22:19:00
5:40 PM,59.0,51.8,77,29.89,10.0,Calm,Calm,-,N/A,,Scattered Clouds,0,2013-11-17 22:40:00
6:00 PM,59.0,51.8,77,29.87,10.0,Calm,Calm,-,N/A,,Scattered Clouds,0,2013-11-17 23:00:00
6:20 PM,57.2,51.8,82,29.87,10.0,Calm,Calm,-,N/A,,Scattered Clouds,0,2013-11-17 23:20:00
6:40 PM,55.4,51.8,88,29.88,10.0,SSW,3.5,-,N/A,,Clear,210,2013-11-17 23:40:00
7:00 PM,57.2,53.6,88,29.86,10.0,Calm,Calm,-,N/A,,Mostly Cloudy,0,2013-11-18 00:00:00
7:20 PM,57.2,53.6,88,29.84,10.0,Calm,Calm,-,N/A,,Scattered Clouds,0,2013-11-18 00:20:00
8:00 PM,57.2,53.6,88,29.81,10.0,SSW,5.8,-,N/A,,Scattered Clouds,210,2013-11-18 01:00:00
8:20 PM,59.0,53.6,82,29.80,10.0,South,6.9,-,N/A,,Mostly Cloudy,190,2013-11-18 01:20:00
8:40 PM,59.0,53.6,82,29.79,10.0,SSW,5.8,-,N/A,,Overcast,200,2013-11-18 01:40:00
9:00 PM,59.0,53.6,82,29.78,10.0,SSW,6.9,-,N/A,,Overcast,200,2013-11-18 02:00:00
9:20 PM,59.0,53.6,82,29.77,10.0,SSW,6.9,-,N/A,,Overcast,200,2013-11-18 02:20:00
9:40 PM,59.0,53.6,82,29.75,10.0,SSW,6.9,-,N/A,,Overcast,210,2013-11-18 02:40:00
10:00 PM,59.0,53.6,82,29.74,10.0,SSW,6.9,-,N/A,,Overcast,210,2013-11-18 03:00:00
10:20 PM,59.0,55.4,88,29.74,10.0,SW,8.1,-,N/A,,Overcast,220,2013-11-18 03:20:00
10:40 PM,59.0,55.4,88,29.72,10.0,South,5.8,-,N/A,,Overcast,180,2013-11-18 03:40:00
11:00 PM,57.2,55.4,94,29.71,10.0,SSW,4.6,-,N/A,,Mostly Cloudy,200,2013-11-18 04:00:00
11:20 PM,57.2,55.4,94,29.69,10.0,South,5.8,-,N/A,,Mostly Cloudy,190,2013-11-18 04:20:00
11:40 PM,57.2,55.4,94,29.69,10.0,South,6.9,-,N/A,,Scattered Clouds,190,2013-11-18 04:40:00